This is the latest recevied weather packets stored in our database for station/object KI7JYE. If no packets are shown the sender has not sent any weather packets the latest 10 day(s).
| Time | Temp. | Humidity | Pressure | Rain* | Wind** | Luminosity | Snow |
|---|---|---|---|---|---|---|---|
| 1777651006 | 12.78° C | 84% | 1016.4 hPa | 0 mm | - | 180 W/m² | - |
| 1777650703 | 12.78° C | 83% | 1016.5 hPa | 0 mm | - | 168 W/m² | - |
| 1777650400 | 13.33° C | 83% | 1016.6 hPa | 0 mm | - | 158 W/m² | - |
| 1777650097 | 13.33° C | 82% | 1016.5 hPa | 0 mm | - | 209 W/m² | - |
| 1777649794 | 12.78° C | 82% | 1016.5 hPa | 0 mm | - | 201 W/m² | - |
| 1777649491 | 13.33° C | 83% | 1016.5 hPa | 0 mm | - | 212 W/m² | - |
| 1777649188 | 12.78° C | 83% | 1016.3 hPa | 0 mm | - | 206 W/m² | - |
| 1777648885 | 13.33° C | 82% | 1016.1 hPa | 0 mm | - | 220 W/m² | - |
| 1777648278 | 12.78° C | 84% | 1016.1 hPa | 0 mm | - | 235 W/m² | - |
| 1777647975 | 12.78° C | 85% | 1016.2 hPa | 0 mm | - | 228 W/m² | - |
| 1777647671 | 12.78° C | 85% | 1016.2 hPa | 0 mm | - | 220 W/m² | - |
| 1777647367 | 12.78° C | 85% | 1016.2 hPa | 0 mm | - | 191 W/m² | - |
| 1777647065 | 11.67° C | 87% | 1015.9 hPa | 0 mm | - | 173 W/m² | - |
| 1777646761 | 11.67° C | 88% | 1016.1 hPa | 0 mm | - | 139 W/m² | - |
| 1777646456 | 11.67° C | 90% | 1016.1 hPa | 0 mm | - | 103 W/m² | - |
| 1777646152 | 11.11° C | 91% | 1016 hPa | 0 mm | - | 84 W/m² | - |
| 1777645850 | 10.56° C | 91% | 1016 hPa | 0 mm | - | 73 W/m² | - |
| 1777645547 | 10.56° C | 92% | 1015.9 hPa | 0 mm | - | 66 W/m² | - |
| 1777645243 | 10.56° C | 94% | 1015.9 hPa | 0 mm | - | 56 W/m² | - |
| 1777644939 | 10° C | 96% | 1015.8 hPa | 0 mm | - | 56 W/m² | - |
| 1777644637 | 10° C | 96% | 1015.7 hPa | 0 mm | - | 55 W/m² | - |
| 1777644332 | 9.44° C | 96% | 1015.5 hPa | 0 mm | - | 48 W/m² | - |
| 1777644028 | 9.44° C | 96% | 1015.5 hPa | 0 mm | - | 44 W/m² | - |
| 1777643725 | 8.89° C | 96% | 1015.3 hPa | 0 mm | - | 39 W/m² | - |
| 1777643423 | 8.89° C | 96% | 1015.1 hPa | 0 mm | - | 34 W/m² | - |
* Rain latest hour (hover to see other rain measurements)
** Current wind speed in m/s (hover to see current wind gust speed)